星链-31513 (STARLINK-31513 )

导读

STARLINK-31513是美国太空探索技术公司(SpaceX)星链互联网卫星项目中的一员,于2024年4月17日发射升空。它隶属于Starlink Group项目,作为低轨宽带互联网卫星,星链卫星旨在为全球提供高速互联网接入服务,该卫星进一步扩充了星链星座的组网规模。

基本信息
目录编号:
59529
目录名称:
STARLINK-31513
国际标识:
2024-073U
轨道中心:
EARTH
卫星名称:
星链-31513
卫星全名:
星链-31513 (STARLINK-31513 )
卫星状态:
在轨 (已飞行788 天)
发射日期:
2024-04-17 UTC
国别 :
美国 (US)
星等 :
--
轨道信息
数据来源 国际轨道数据 AOE轨道数据
星历时间 2026-06-13T22:49:57+0800
20小时前
查看轨道信息
2026-06-13T00:00:00+0800
1天前
查看轨道信息
半长轴 6861.184km 6861.176km
偏心率 0.0000966 0.0001028
轨道倾角 43.005° 42.999°
近地点辐角 285.601° 278.626°
升交点赤经 133.024° 138.397°
平近点角 74.473° 243.506°
近地点 482.384km 482.333km
远地点 483.71km 483.745km
周期 94.267分钟 94.267分钟
每日圈数 15.27581 15.275835
详细信息
固有亮度:
5
最大亮度:
1.5
卫星平台:
Starlink v2.0 mini
覆盖范围:
全球
运营商:
太空探索技术公司
运营商所在国:
美国
制造商(研发单位):
太空探索技术公司
制造商所在国:
美国
使用方式:
暂无
卫星简介
星链(Starlink)计划是由太空探索技术公司(SpaceX)提出的一个巨型低轨卫星互联网星座项目,计划在2019年至2024年间在太空搭建由约1.2万颗卫星组成的“星链”网络,其中1584颗将部署在地球上空550千米处的近地轨道,并从2020年开始工作。该卫星仍在工作。
2D轨道图
3D轨道图
轨道高度分析图
轨道倾角分析图
轨道综合分析图
查看轨道综合分析图